Year,Month,Day,Hour,Minute,Value (Times are PST for temperature in C)
2010,01,21,00,00,8.20
2010,01,21,00,01,8.20
2010,01,21,00,02,8.20
2010,01,21,00,03,8.20
2010,01,21,00,04,8.20
2010,01,21,00,05,8.20
2010,01,21,00,06,8.20
2010,01,21,00,07,8.20
2010,01,21,00,08,8.20
2010,01,21,00,09,8.20
2010,01,21,00,10,8.20
2010,01,21,00,11,8.20
2010,01,21,00,12,8.20
2010,01,21,00,13,8.20
2010,01,21,00,14,8.20
2010,01,21,00,15,8.20
2010,01,21,00,16,8.20
2010,01,21,00,17,8.20
2010,01,21,00,18,8.20
2010,01,21,00,19,8.20
2010,01,21,00,20,8.20
2010,01,21,00,21,8.20
2010,01,21,00,22,8.20
2010,01,21,00,23,8.20
2010,01,21,00,24,8.20
2010,01,21,00,25,8.10
2010,01,21,00,26,8.10
2010,01,21,00,27,8.10
2010,01,21,00,28,8.10
2010,01,21,00,29,8.10
2010,01,21,00,30,8.10
2010,01,21,00,31,8.10
2010,01,21,00,32,8.10
2010,01,21,00,33,8.10
2010,01,21,00,34,8.10
2010,01,21,00,35,8.10
2010,01,21,00,36,8.10
2010,01,21,00,37,8.10
2010,01,21,00,38,8.10
2010,01,21,00,39,8.00
2010,01,21,00,40,8.00
2010,01,21,00,41,8.00
2010,01,21,00,42,8.00
2010,01,21,00,43,8.00
2010,01,21,00,44,8.00
2010,01,21,00,45,8.00
2010,01,21,00,46,8.00
2010,01,21,00,47,8.00
2010,01,21,00,48,8.00
2010,01,21,00,49,8.00
2010,01,21,00,50,8.00
2010,01,21,00,51,8.00
2010,01,21,00,52,7.90
2010,01,21,00,53,7.90
2010,01,21,00,54,7.90
2010,01,21,00,55,7.90
2010,01,21,00,56,7.90
2010,01,21,00,57,7.90
2010,01,21,00,58,7.90
2010,01,21,00,59,7.80
2010,01,21,01,00,7.80
2010,01,21,01,01,7.80
2010,01,21,01,02,7.80
2010,01,21,01,03,7.80
2010,01,21,01,04,7.80
2010,01,21,01,05,7.80
2010,01,21,01,06,7.80
2010,01,21,01,07,7.80
2010,01,21,01,08,7.80
2010,01,21,01,09,7.80
2010,01,21,01,10,7.80
2010,01,21,01,11,7.80
2010,01,21,01,12,7.80
2010,01,21,01,13,7.80
2010,01,21,01,14,7.80
2010,01,21,01,15,7.80
2010,01,21,01,16,7.80
2010,01,21,01,17,7.80
2010,01,21,01,18,7.80
2010,01,21,01,19,7.80
2010,01,21,01,20,7.80
2010,01,21,01,21,7.80
2010,01,21,01,22,7.80
2010,01,21,01,23,7.80
2010,01,21,01,24,7.80
2010,01,21,01,25,7.80
2010,01,21,01,26,7.80
2010,01,21,01,27,7.80
2010,01,21,01,28,7.80
2010,01,21,01,29,7.80
2010,01,21,01,30,7.80
2010,01,21,01,31,7.80
2010,01,21,01,32,7.80
2010,01,21,01,33,7.80
2010,01,21,01,34,7.80
2010,01,21,01,35,7.80
2010,01,21,01,36,7.80
2010,01,21,01,37,7.80
2010,01,21,01,38,7.80
2010,01,21,01,39,7.80
2010,01,21,01,40,7.80
2010,01,21,01,41,7.80
2010,01,21,01,42,7.80
2010,01,21,01,43,7.80
2010,01,21,01,44,7.80
2010,01,21,01,45,7.80
2010,01,21,01,46,7.80
2010,01,21,01,47,7.80
2010,01,21,01,48,7.80
2010,01,21,01,49,7.80
2010,01,21,01,50,7.80
2010,01,21,01,51,7.80
2010,01,21,01,52,7.80
2010,01,21,01,53,7.80
2010,01,21,01,54,7.80
2010,01,21,01,55,7.80
2010,01,21,01,56,7.80
2010,01,21,01,57,7.80
2010,01,21,01,58,7.80
2010,01,21,01,59,7.80
2010,01,21,02,00,7.80
2010,01,21,02,01,7.80
2010,01,21,02,02,7.80
2010,01,21,02,03,7.80
2010,01,21,02,04,7.80
2010,01,21,02,05,7.80
2010,01,21,02,06,7.80
2010,01,21,02,07,7.80
2010,01,21,02,08,7.70
2010,01,21,02,09,7.70
2010,01,21,02,10,7.70
2010,01,21,02,11,7.70
2010,01,21,02,12,7.70
2010,01,21,02,13,7.70
2010,01,21,02,14,7.70
2010,01,21,02,15,7.70
2010,01,21,02,16,7.70
2010,01,21,02,17,7.70
2010,01,21,02,18,7.70
2010,01,21,02,19,7.70
2010,01,21,02,20,7.70
2010,01,21,02,21,7.70
2010,01,21,02,22,7.70
2010,01,21,02,23,7.70
2010,01,21,02,24,7.60
2010,01,21,02,25,7.60
2010,01,21,02,26,7.60
2010,01,21,02,27,7.60
2010,01,21,02,28,7.60
2010,01,21,02,29,7.60
2010,01,21,02,30,7.60
2010,01,21,02,31,7.60
2010,01,21,02,32,7.60
2010,01,21,02,33,7.50
2010,01,21,02,34,7.50
2010,01,21,02,35,7.50
2010,01,21,02,36,7.50
2010,01,21,02,37,7.50
2010,01,21,02,38,7.50
2010,01,21,02,39,7.50
2010,01,21,02,40,7.50
2010,01,21,02,41,7.50
2010,01,21,02,42,7.50
2010,01,21,02,43,7.50
2010,01,21,02,44,7.50
2010,01,21,02,45,7.50
2010,01,21,02,46,7.50
2010,01,21,02,47,7.50
2010,01,21,02,48,7.50
2010,01,21,02,49,7.50
2010,01,21,02,50,7.50
2010,01,21,02,51,7.50
2010,01,21,02,52,7.50
2010,01,21,02,53,7.50
2010,01,21,02,54,7.50
2010,01,21,02,55,7.50
2010,01,21,02,56,7.50
2010,01,21,02,57,7.50
2010,01,21,02,58,7.50
2010,01,21,02,59,7.50
2010,01,21,03,00,7.50
2010,01,21,03,01,7.50
2010,01,21,03,02,7.50
2010,01,21,03,03,7.50
2010,01,21,03,04,7.50
2010,01,21,03,05,7.50
2010,01,21,03,06,7.50
2010,01,21,03,07,7.50
2010,01,21,03,08,7.50
2010,01,21,03,09,7.50
2010,01,21,03,10,7.50
2010,01,21,03,11,7.50
2010,01,21,03,12,7.50
2010,01,21,03,13,7.50
2010,01,21,03,14,7.50
2010,01,21,03,15,7.50
2010,01,21,03,16,7.50
2010,01,21,03,17,7.50
2010,01,21,03,18,7.50
2010,01,21,03,19,7.60
2010,01,21,03,20,7.60
2010,01,21,03,21,7.60
2010,01,21,03,22,7.60
2010,01,21,03,23,7.60
2010,01,21,03,24,7.60
2010,01,21,03,25,7.60
2010,01,21,03,26,7.60
2010,01,21,03,27,7.60
2010,01,21,03,28,7.60
2010,01,21,03,29,7.70
2010,01,21,03,30,7.70
2010,01,21,03,31,7.70
2010,01,21,03,32,7.70
2010,01,21,03,33,7.70
2010,01,21,03,34,7.70
2010,01,21,03,35,7.70
2010,01,21,03,36,7.70
2010,01,21,03,37,7.70
2010,01,21,03,38,7.70
2010,01,21,03,39,7.70
2010,01,21,03,40,7.70
2010,01,21,03,41,7.70
2010,01,21,03,42,7.70
2010,01,21,03,43,7.70
2010,01,21,03,44,7.70
2010,01,21,03,45,7.70
2010,01,21,03,46,7.70
2010,01,21,03,47,7.60
2010,01,21,03,48,7.60
2010,01,21,03,49,7.60
2010,01,21,03,50,7.60
2010,01,21,03,51,7.60
2010,01,21,03,52,7.50
2010,01,21,03,53,7.50
2010,01,21,03,54,7.50
2010,01,21,03,55,7.50
2010,01,21,03,56,7.50
2010,01,21,03,57,7.50
2010,01,21,03,58,7.50
2010,01,21,03,59,7.50
2010,01,21,04,00,7.50
2010,01,21,04,01,7.50
2010,01,21,04,02,7.50
2010,01,21,04,03,7.50
2010,01,21,04,04,7.40
2010,01,21,04,05,7.40
2010,01,21,04,06,7.40
2010,01,21,04,07,7.40
2010,01,21,04,08,7.40
2010,01,21,04,09,7.40
2010,01,21,04,10,7.40
2010,01,21,04,11,7.40
2010,01,21,04,12,7.40
2010,01,21,04,13,7.40
2010,01,21,04,14,7.40
2010,01,21,04,15,7.40
2010,01,21,08,46,7.30
2010,01,21,08,47,7.30
2010,01,21,08,48,7.30
2010,01,21,08,49,7.30
2010,01,21,08,50,7.30
2010,01,21,08,51,7.30
2010,01,21,08,52,7.30
2010,01,21,08,53,7.30
2010,01,21,08,54,7.30
2010,01,21,08,55,7.40
2010,01,21,08,56,7.40
2010,01,21,08,57,7.40
2010,01,21,08,58,7.40
2010,01,21,08,59,7.40
2010,01,21,09,00,7.40
2010,01,21,09,01,7.40
2010,01,21,09,02,7.50
2010,01,21,09,03,7.50
2010,01,21,09,04,7.40
2010,01,21,09,05,7.40
2010,01,21,09,06,7.40
2010,01,21,09,07,7.40
2010,01,21,09,08,7.40
2010,01,21,09,09,7.40
2010,01,21,09,10,7.40
2010,01,21,09,11,7.40
2010,01,21,09,12,7.50
2010,01,21,09,13,7.50
2010,01,21,09,14,7.50
2010,01,21,09,15,7.50
2010,01,21,09,16,7.50
2010,01,21,09,17,7.50
2010,01,21,09,18,7.60
2010,01,21,09,19,7.60
2010,01,21,09,20,7.60
2010,01,21,09,21,7.60
2010,01,21,09,22,7.60
2010,01,21,09,23,7.70
2010,01,21,09,24,7.70
2010,01,21,09,25,7.70
2010,01,21,09,26,7.80
2010,01,21,09,27,7.80
2010,01,21,09,28,7.80
2010,01,21,09,29,7.90
2010,01,21,09,30,7.90
2010,01,21,09,31,7.90
2010,01,21,09,32,8.00
2010,01,21,09,33,8.00
2010,01,21,09,34,8.00
2010,01,21,09,35,8.00
2010,01,21,09,36,8.00
2010,01,21,09,37,8.00
2010,01,21,09,38,8.00
2010,01,21,09,39,8.00
2010,01,21,09,40,8.00
2010,01,21,09,41,8.00
2010,01,21,09,42,8.10
2010,01,21,09,43,8.10
2010,01,21,09,44,8.20
2010,01,21,09,45,8.20
2010,01,21,09,46,8.30
2010,01,21,09,47,8.40
2010,01,21,09,48,8.40
2010,01,21,09,49,8.40
2010,01,21,09,50,8.50
2010,01,21,09,51,8.50
2010,01,21,09,52,8.50
2010,01,21,09,53,8.60
2010,01,21,09,54,8.60
2010,01,21,09,55,8.70
2010,01,21,09,56,8.70
2010,01,21,09,57,8.70
2010,01,21,09,58,8.80
2010,01,21,09,59,8.90
2010,01,21,10,00,9.00
2010,01,21,10,01,9.00
2010,01,21,10,02,9.10
2010,01,21,10,03,9.10
2010,01,21,10,04,9.20
2010,01,21,10,05,9.20
2010,01,21,10,06,9.20
2010,01,21,10,07,9.20
2010,01,21,10,08,9.30
2010,01,21,10,09,9.30
2010,01,21,10,10,9.30
2010,01,21,10,11,9.30
2010,01,21,10,12,9.40
2010,01,21,10,13,9.40
2010,01,21,10,14,9.50
2010,01,21,10,15,9.50
2010,01,21,10,16,9.50
2010,01,21,10,17,9.50
2010,01,21,10,18,9.50
2010,01,21,10,19,9.50
2010,01,21,10,20,9.50
2010,01,21,10,21,9.50
2010,01,21,10,22,9.50
2010,01,21,10,23,9.50
2010,01,21,10,24,9.50
2010,01,21,10,25,9.50
2010,01,21,10,26,9.60
2010,01,21,10,27,9.60
2010,01,21,10,28,9.60
2010,01,21,10,29,9.60
2010,01,21,10,30,9.60
2010,01,21,10,31,9.60
2010,01,21,10,32,9.60
2010,01,21,10,33,9.60
2010,01,21,10,34,9.60
2010,01,21,10,35,9.60
2010,01,21,10,36,9.60
2010,01,21,10,37,9.50
2010,01,21,10,38,9.50
2010,01,21,10,39,9.50
2010,01,21,10,40,9.50
2010,01,21,10,41,9.50
2010,01,21,10,42,9.40
2010,01,21,10,43,9.40
2010,01,21,10,44,9.40
2010,01,21,10,45,9.40
2010,01,21,10,46,9.40
2010,01,21,10,47,9.40
2010,01,21,10,48,9.30
2010,01,21,10,49,9.30
2010,01,21,10,50,9.30
2010,01,21,10,51,9.30
2010,01,21,10,52,9.40
2010,01,21,10,53,9.40
2010,01,21,10,54,9.40
2010,01,21,10,55,9.40
2010,01,21,10,56,9.40
2010,01,21,10,57,9.40
2010,01,21,10,58,9.40
2010,01,21,10,59,9.40
2010,01,21,11,00,9.40
2010,01,21,11,01,9.50
2010,01,21,11,02,9.50
2010,01,21,11,03,9.50
2010,01,21,11,04,9.50
2010,01,21,11,05,9.50
2010,01,21,11,06,9.50
2010,01,21,11,07,9.50
2010,01,21,11,08,9.50
2010,01,21,11,09,9.40
2010,01,21,11,10,9.40
2010,01,21,11,11,9.40
2010,01,21,11,12,9.40
2010,01,21,11,13,9.40
2010,01,21,11,14,9.40
2010,01,21,11,15,9.40
2010,01,21,11,16,9.40
2010,01,21,11,17,9.30
2010,01,21,11,18,9.30
2010,01,21,11,19,9.30
2010,01,21,11,20,9.30
2010,01,21,11,21,9.30
2010,01,21,11,22,9.30
2010,01,21,11,23,9.30
2010,01,21,11,24,9.30
2010,01,21,11,25,9.30
2010,01,21,11,26,9.20
2010,01,21,11,27,9.20
2010,01,21,11,28,9.20
2010,01,21,11,29,9.20
2010,01,21,11,30,9.20
2010,01,21,11,31,9.20
2010,01,21,11,32,9.20
2010,01,21,11,33,9.20
2010,01,21,11,34,9.20
2010,01,21,11,35,9.20
2010,01,21,11,36,9.20
2010,01,21,11,37,9.20
2010,01,21,11,38,9.20
2010,01,21,11,39,9.20
2010,01,21,11,40,9.20
2010,01,21,11,41,9.20
2010,01,21,11,42,9.20
2010,01,21,11,43,9.20
2010,01,21,11,44,9.20
2010,01,21,11,45,9.20
2010,01,21,11,46,9.20
2010,01,21,11,47,9.30
2010,01,21,11,48,9.30
2010,01,21,11,49,9.30
2010,01,21,11,50,9.40
2010,01,21,11,51,9.50
2010,01,21,11,52,9.50
2010,01,21,11,53,9.50
2010,01,21,11,54,9.60
2010,01,21,11,55,9.60
2010,01,21,11,56,9.70
2010,01,21,11,57,9.70
2010,01,21,11,58,9.70
2010,01,21,11,59,9.70
2010,01,21,12,00,9.70
2010,01,21,12,01,9.80
2010,01,21,12,02,9.80
2010,01,21,12,03,9.80
2010,01,21,12,04,9.80
2010,01,21,12,05,9.80
2010,01,21,12,06,9.80
2010,01,21,12,07,9.80
2010,01,21,12,08,9.80
2010,01,21,12,09,9.80
2010,01,21,12,10,9.80
2010,01,21,12,11,9.80
2010,01,21,12,12,9.80
2010,01,21,12,13,9.80
2010,01,21,12,14,9.80
2010,01,21,12,15,9.80
2010,01,21,12,16,9.80
2010,01,21,12,17,9.80
2010,01,21,12,18,9.80
2010,01,21,12,19,9.80
2010,01,21,12,20,9.80
2010,01,21,12,21,9.80
2010,01,21,12,22,9.80
2010,01,21,12,23,9.80
2010,01,21,12,24,9.80
2010,01,21,12,25,9.80
2010,01,21,12,26,9.80
2010,01,21,12,27,9.80
2010,01,21,12,28,9.80
2010,01,21,12,29,9.80
2010,01,21,12,30,9.80
2010,01,21,12,31,9.80
2010,01,21,12,32,9.80
2010,01,21,12,33,9.80
2010,01,21,12,34,9.80
2010,01,21,12,35,9.80
2010,01,21,12,36,9.80
2010,01,21,12,37,9.90
2010,01,21,12,38,9.90
2010,01,21,12,39,9.90
2010,01,21,12,40,10.10
2010,01,21,12,41,10.10
2010,01,21,12,42,10.10
2010,01,21,12,43,10.20
2010,01,21,12,44,10.20
2010,01,21,12,45,10.30
2010,01,21,12,46,10.30
2010,01,21,12,47,10.30
2010,01,21,12,48,10.40
2010,01,21,12,49,10.40
2010,01,21,12,50,10.40
2010,01,21,12,51,10.40
2010,01,21,12,52,10.30
2010,01,21,12,53,10.30
2010,01,21,12,54,10.30
2010,01,21,12,55,10.30
2010,01,21,12,56,10.30
2010,01,21,12,57,10.30
2010,01,21,12,58,10.30
2010,01,21,12,59,10.30
2010,01,21,13,00,10.40
2010,01,21,13,01,10.40
2010,01,21,13,02,10.40
2010,01,21,13,03,10.40
2010,01,21,13,04,10.50
2010,01,21,13,05,10.60
2010,01,21,13,06,10.60
2010,01,21,13,07,10.60
2010,01,21,13,08,10.60
2010,01,21,13,09,10.70
2010,01,21,13,10,10.70
2010,01,21,13,11,10.70
2010,01,21,13,12,10.80
2010,01,21,13,13,10.80
2010,01,21,13,14,10.90
2010,01,21,13,15,10.90
2010,01,21,13,16,10.90
2010,01,21,13,17,10.90
2010,01,21,13,18,10.90
2010,01,21,13,19,11.00
2010,01,21,13,20,11.10
2010,01,21,13,21,11.10
2010,01,21,13,22,11.10
2010,01,21,13,23,11.10
2010,01,21,13,24,11.10
2010,01,21,13,25,11.20
2010,01,21,13,26,11.20
2010,01,21,13,27,11.20
2010,01,21,13,28,11.30
2010,01,21,13,29,11.30
2010,01,21,13,30,11.40
2010,01,21,13,31,11.40
2010,01,21,13,32,11.50
2010,01,21,13,33,11.60
2010,01,21,13,34,11.60
2010,01,21,13,35,11.60
2010,01,21,13,36,11.50
2010,01,21,13,37,11.40
2010,01,21,13,38,11.50
2010,01,21,13,39,11.60
2010,01,21,13,40,11.60
2010,01,21,13,41,11.60
2010,01,21,13,42,11.50
2010,01,21,13,43,11.40
2010,01,21,13,44,11.40
2010,01,21,13,45,11.40
2010,01,21,13,46,11.40
2010,01,21,13,47,11.40
2010,01,21,13,48,11.40
2010,01,21,13,49,11.40
2010,01,21,13,50,11.30
2010,01,21,13,51,11.30
2010,01,21,13,52,11.30
2010,01,21,13,53,11.20
2010,01,21,13,54,11.10
2010,01,21,13,55,11.10
2010,01,21,13,56,11.10
2010,01,21,13,57,11.00
2010,01,21,13,58,10.90
2010,01,21,13,59,10.90
2010,01,21,14,00,10.90
2010,01,21,14,01,10.90
2010,01,21,14,02,10.90
2010,01,21,14,03,10.90
2010,01,21,14,04,10.90
2010,01,21,14,05,10.90
2010,01,21,14,06,11.00
2010,01,21,14,07,11.00
2010,01,21,14,08,10.90
2010,01,21,14,09,10.90
2010,01,21,14,10,10.90
2010,01,21,14,11,10.90
2010,01,21,14,12,10.90
2010,01,21,14,13,10.90
2010,01,21,14,14,10.90
2010,01,21,14,15,10.80
2010,01,21,14,16,10.70
2010,01,21,14,17,10.70
2010,01,21,14,18,10.60
2010,01,21,14,19,10.60
2010,01,21,14,20,10.60
2010,01,21,14,21,10.60
2010,01,21,14,22,10.50
2010,01,21,14,23,10.40
2010,01,21,14,24,10.40
2010,01,21,14,25,10.40
2010,01,21,14,26,10.30
2010,01,21,14,27,10.30
2010,01,21,14,28,10.20
2010,01,21,14,29,10.20
2010,01,21,14,30,10.10
2010,01,21,14,31,10.10
2010,01,21,14,32,10.10
2010,01,21,14,33,10.00
2010,01,21,14,34,9.90
2010,01,21,14,35,9.90
2010,01,21,14,36,9.90
2010,01,21,14,37,9.90
2010,01,21,14,38,9.90
2010,01,21,14,39,9.90
2010,01,21,14,40,9.90
2010,01,21,14,41,10.10
2010,01,21,14,42,10.10
2010,01,21,14,43,10.10
2010,01,21,14,44,10.20
2010,01,21,14,45,10.20
2010,01,21,14,46,10.30
2010,01,21,14,47,10.30
2010,01,21,14,48,10.40
2010,01,21,14,49,10.40
2010,01,21,14,50,10.40
2010,01,21,14,51,10.40
2010,01,21,14,52,10.40
2010,01,21,14,53,10.40
2010,01,21,14,54,10.40
2010,01,21,14,55,10.40
2010,01,21,14,56,10.30
2010,01,21,14,57,10.30
2010,01,21,14,58,10.30
2010,01,21,14,59,10.30
2010,01,21,15,00,10.30
2010,01,21,15,01,10.30
2010,01,21,15,02,10.30
2010,01,21,15,03,10.30
2010,01,21,15,04,10.20
2010,01,21,15,05,10.20
2010,01,21,15,06,10.20
2010,01,21,15,07,10.20
2010,01,21,15,08,10.20
2010,01,21,15,09,10.20
2010,01,21,15,10,10.30
2010,01,21,15,11,10.30
2010,01,21,15,12,10.30
2010,01,21,15,13,10.30
2010,01,21,15,14,10.20
2010,01,21,15,15,10.20
2010,01,21,15,16,10.20
2010,01,21,15,17,10.20
2010,01,21,15,18,10.20
2010,01,21,15,19,10.10
2010,01,21,15,20,10.10
2010,01,21,15,21,10.20
2010,01,21,15,22,10.30
2010,01,21,15,23,10.30
2010,01,21,15,24,10.30
2010,01,21,15,25,10.30
2010,01,21,15,26,10.40
2010,01,21,15,27,10.30
2010,01,21,15,28,10.30
2010,01,21,15,29,10.40
2010,01,21,15,30,10.40
2010,01,21,15,31,10.40
2010,01,21,15,32,10.30
2010,01,21,15,33,10.30
2010,01,21,15,34,10.30
2010,01,21,15,35,10.40
2010,01,21,15,36,10.40
2010,01,21,15,37,10.40
2010,01,21,15,38,10.40
2010,01,21,15,39,10.40
2010,01,21,15,40,10.30
2010,01,21,15,41,10.30
2010,01,21,15,42,10.30
2010,01,21,15,43,10.30
2010,01,21,15,44,10.20
2010,01,21,15,45,10.20
2010,01,21,15,46,10.20
2010,01,21,15,47,10.20
2010,01,21,15,48,10.10
2010,01,21,15,49,10.10
2010,01,21,15,50,10.10
2010,01,21,15,51,10.10
2010,01,21,15,52,10.10
2010,01,21,15,53,10.10
2010,01,21,15,54,10.10
2010,01,21,15,55,10.10
2010,01,21,15,56,10.10
2010,01,21,15,57,10.10
2010,01,21,15,58,10.10
2010,01,21,15,59,10.20
2010,01,21,16,00,10.20
2010,01,21,16,01,10.30
2010,01,21,16,02,10.30
2010,01,21,16,03,10.40
2010,01,21,16,04,10.40
2010,01,21,16,05,10.40
2010,01,21,16,06,10.40
2010,01,21,16,07,10.40
2010,01,21,16,08,10.50
2010,01,21,16,09,10.60
2010,01,21,16,10,10.60
2010,01,21,16,11,10.60
2010,01,21,16,12,10.60
2010,01,21,16,13,10.60
2010,01,21,16,14,10.60
2010,01,21,16,15,10.60
2010,01,21,16,16,10.60
2010,01,21,16,17,10.40
2010,01,21,16,18,10.40
2010,01,21,16,19,10.40
2010,01,21,16,20,10.40
2010,01,21,16,21,10.50
2010,01,21,16,22,10.70
2010,01,21,16,23,10.80
2010,01,21,16,24,10.80
2010,01,21,16,25,10.90
2010,01,21,16,26,10.90
2010,01,21,16,27,11.10
2010,01,21,16,28,11.10
2010,01,21,16,29,11.20
2010,01,21,16,30,11.30
2010,01,21,16,31,11.40
2010,01,21,16,32,11.40
2010,01,21,16,33,11.40
2010,01,21,16,34,11.60
2010,01,21,16,35,11.60
2010,01,21,16,36,11.60
2010,01,21,16,37,11.60
2010,01,21,16,38,11.60
2010,01,21,16,39,11.60
2010,01,21,16,40,11.60
2010,01,21,16,41,11.60
2010,01,21,16,42,11.60
2010,01,21,16,43,11.60
2010,01,21,16,44,11.60
2010,01,21,16,45,11.50
2010,01,21,16,46,11.40
2010,01,21,16,47,11.40
2010,01,21,16,48,11.40
2010,01,21,16,49,11.40
2010,01,21,16,50,11.40
2010,01,21,16,51,11.30
2010,01,21,16,52,11.30
2010,01,21,16,53,11.30
2010,01,21,16,54,11.30
2010,01,21,16,55,11.30
2010,01,21,16,56,11.30
2010,01,21,16,57,11.30
2010,01,21,16,58,11.20
2010,01,21,16,59,11.10
2010,01,21,17,00,11.10
2010,01,21,17,01,11.00
2010,01,21,17,02,10.90
2010,01,21,17,03,10.80
2010,01,21,17,04,10.60
2010,01,21,17,05,10.60
2010,01,21,17,06,10.40
2010,01,21,17,07,10.40
2010,01,21,17,08,10.30
2010,01,21,17,09,10.30
2010,01,21,17,10,10.20
2010,01,21,17,11,10.20
2010,01,21,17,12,10.20
2010,01,21,17,13,10.20
2010,01,21,17,14,10.20
2010,01,21,17,15,10.20
2010,01,21,17,16,10.10
2010,01,21,17,17,10.20
2010,01,21,17,18,10.20
2010,01,21,17,19,10.20
2010,01,21,17,20,10.20
2010,01,21,17,21,10.30
2010,01,21,17,22,10.40
2010,01,21,17,23,10.40
2010,01,21,17,24,10.40
2010,01,21,17,25,10.40
2010,01,21,17,26,10.50
2010,01,21,17,27,10.60
2010,01,21,17,28,10.60
2010,01,21,17,29,10.60
2010,01,21,17,30,10.60
2010,01,21,17,31,10.70
2010,01,21,17,32,10.70
2010,01,21,17,33,10.70
2010,01,21,17,34,10.80
2010,01,21,17,35,10.80
2010,01,21,17,36,10.80
2010,01,21,17,37,10.90
2010,01,21,17,38,10.90
2010,01,21,17,39,10.90
2010,01,21,17,40,11.00
2010,01,21,17,41,11.10
2010,01,21,17,42,11.10
2010,01,21,17,43,11.10
2010,01,21,17,44,11.10
2010,01,21,17,45,11.10
2010,01,21,17,46,11.10
2010,01,21,17,47,11.10
2010,01,21,17,48,11.10
2010,01,21,17,49,11.10
2010,01,21,17,50,11.10
2010,01,21,17,51,11.10
2010,01,21,17,52,11.10
2010,01,21,17,53,11.10
2010,01,21,17,54,11.00
2010,01,21,17,55,10.90
2010,01,21,17,56,10.80
2010,01,21,17,57,10.70
2010,01,21,17,58,10.60
2010,01,21,17,59,10.60
2010,01,21,18,00,10.40
2010,01,21,18,01,10.40
2010,01,21,18,02,10.30
2010,01,21,18,03,10.30
2010,01,21,18,04,10.20
2010,01,21,18,05,10.20
2010,01,21,18,06,10.10
2010,01,21,18,07,10.10
2010,01,21,18,08,10.00
2010,01,21,18,09,9.90
2010,01,21,18,10,9.90
2010,01,21,18,11,9.90
2010,01,21,18,12,9.80
2010,01,21,18,13,9.70
2010,01,21,18,14,9.70
2010,01,21,18,15,9.70
2010,01,21,18,16,9.70
2010,01,21,18,17,9.60
2010,01,21,18,18,9.60
2010,01,21,18,19,9.60
2010,01,21,18,20,9.50
2010,01,21,18,21,9.50
2010,01,21,18,22,9.50
2010,01,21,18,23,9.50
2010,01,21,18,24,9.50
2010,01,21,18,25,9.50
2010,01,21,18,26,9.50
2010,01,21,18,27,9.50
2010,01,21,18,28,9.50
2010,01,21,18,29,9.50
2010,01,21,18,30,9.50
2010,01,21,18,31,9.50
2010,01,21,18,32,9.60
2010,01,21,18,33,9.60
2010,01,21,18,34,9.60
2010,01,21,18,35,9.50
2010,01,21,18,36,9.50
2010,01,21,18,37,9.50
2010,01,21,18,38,9.50
2010,01,21,18,39,9.50
2010,01,21,18,40,9.40
2010,01,21,18,41,9.40
2010,01,21,18,42,9.40
2010,01,21,18,43,9.40
2010,01,21,18,44,9.30
2010,01,21,18,45,9.30
2010,01,21,18,46,9.30
2010,01,21,18,47,9.30
2010,01,21,18,48,9.30
2010,01,21,18,49,9.30
2010,01,21,18,50,9.30
2010,01,21,18,51,9.30
2010,01,21,18,52,9.30
2010,01,21,18,53,9.30
2010,01,21,18,54,9.30
2010,01,21,18,55,9.30
2010,01,21,18,56,9.30
2010,01,21,18,57,9.40
2010,01,21,18,58,9.40
2010,01,21,18,59,9.40
2010,01,21,19,00,9.40
2010,01,21,19,01,9.40
2010,01,21,19,02,9.40
2010,01,21,19,03,9.40
2010,01,21,19,04,9.40
2010,01,21,19,05,9.40
2010,01,21,19,06,9.30
2010,01,21,19,07,9.30
2010,01,21,19,08,9.30
2010,01,21,19,09,9.30
2010,01,21,19,10,9.30
2010,01,21,19,11,9.30
2010,01,21,19,12,9.20
2010,01,21,19,13,9.20
2010,01,21,19,14,9.20
2010,01,21,19,15,9.20
2010,01,21,19,16,9.20
2010,01,21,19,17,9.20
2010,01,21,19,18,9.20
2010,01,21,19,19,9.20
2010,01,21,19,20,9.20
2010,01,21,19,21,9.20
2010,01,21,19,22,9.20
2010,01,21,19,23,9.20
2010,01,21,19,24,9.20
2010,01,21,19,25,9.20
2010,01,21,19,26,9.20
2010,01,21,19,27,9.20
2010,01,21,19,28,9.20
2010,01,21,19,29,9.20
2010,01,21,19,30,9.20
2010,01,21,19,31,9.20
2010,01,21,19,32,9.20
2010,01,21,19,33,9.20
2010,01,21,19,34,9.20
2010,01,21,19,35,9.20
2010,01,21,19,36,9.20
2010,01,21,19,37,9.10
2010,01,21,19,38,9.10
2010,01,21,19,39,9.10
2010,01,21,19,40,9.10
2010,01,21,19,41,9.00
2010,01,21,19,42,9.00
2010,01,21,19,43,9.00
2010,01,21,19,44,9.00
2010,01,21,19,45,9.00
2010,01,21,19,46,8.90
2010,01,21,19,47,8.90
2010,01,21,19,48,8.90
2010,01,21,19,49,8.90
2010,01,21,19,50,8.90
2010,01,21,19,51,8.80
2010,01,21,19,52,8.80
2010,01,21,19,53,8.80
2010,01,21,19,54,8.80
2010,01,21,19,55,8.80
2010,01,21,19,56,8.80
2010,01,21,19,57,8.80
2010,01,21,19,58,8.80
2010,01,21,19,59,8.90
2010,01,21,20,00,8.90
2010,01,21,20,01,8.90
2010,01,21,20,02,8.90
2010,01,21,20,03,8.90
2010,01,21,20,04,8.90
2010,01,21,20,05,8.90
2010,01,21,20,06,8.80
2010,01,21,20,07,8.80
2010,01,21,20,08,8.80
2010,01,21,20,09,8.80
2010,01,21,20,10,8.80
2010,01,21,20,11,8.80
2010,01,21,20,12,8.90
2010,01,21,20,13,8.90
2010,01,21,20,14,8.90
2010,01,21,20,15,9.00
2010,01,21,20,16,9.00
2010,01,21,20,17,9.00
2010,01,21,20,18,9.00
2010,01,21,20,19,9.00
2010,01,21,20,20,9.00
2010,01,21,20,21,9.00
2010,01,21,20,22,9.00
2010,01,21,20,23,9.00
2010,01,21,20,24,9.00
2010,01,21,20,25,9.00
2010,01,21,20,26,9.10
2010,01,21,20,27,9.10
2010,01,21,20,28,9.10
2010,01,21,20,29,9.10
2010,01,21,20,30,9.10
2010,01,21,20,31,9.10
2010,01,21,20,32,9.00
2010,01,21,20,33,9.00
2010,01,21,20,34,9.00
2010,01,21,20,35,9.10
2010,01,21,20,36,9.00
2010,01,21,20,37,9.00
2010,01,21,20,38,8.90
2010,01,21,20,39,8.90
2010,01,21,20,40,8.90
2010,01,21,20,41,9.00
2010,01,21,20,42,9.10
2010,01,21,20,43,9.10
2010,01,21,20,44,9.10
2010,01,21,20,45,9.10
2010,01,21,20,46,9.10
2010,01,21,20,47,9.20
2010,01,21,20,48,9.20
2010,01,21,20,49,9.20
2010,01,21,20,50,9.20
2010,01,21,20,51,9.20
2010,01,21,20,52,9.10
2010,01,21,20,53,9.10
2010,01,21,20,54,9.10
2010,01,21,20,55,9.10
2010,01,21,20,56,9.10
2010,01,21,20,57,9.10
2010,01,21,20,58,9.10
2010,01,21,20,59,9.10
2010,01,21,21,00,9.10
2010,01,21,21,01,9.10
2010,01,21,21,02,9.10
2010,01,21,21,03,9.20
2010,01,21,21,04,9.20
2010,01,21,21,05,9.20
2010,01,21,21,06,9.10
2010,01,21,21,07,9.10
2010,01,21,21,08,9.00
2010,01,21,21,09,9.00
2010,01,21,21,10,9.00
2010,01,21,21,11,8.90
2010,01,21,21,12,8.90
2010,01,21,21,13,8.80
2010,01,21,21,14,8.80
2010,01,21,21,15,8.70
2010,01,21,21,16,8.70
2010,01,21,21,17,8.70
2010,01,21,21,18,8.70
2010,01,21,21,19,8.70
2010,01,21,21,20,8.70
2010,01,21,21,21,8.70
2010,01,21,21,22,8.70
2010,01,21,21,23,8.70
2010,01,21,21,24,8.60
2010,01,21,21,25,8.60
2010,01,21,21,26,8.60
2010,01,21,21,27,8.60
2010,01,21,21,28,8.60
2010,01,21,21,29,8.50
2010,01,21,21,30,8.50
2010,01,21,21,31,8.50
2010,01,21,21,32,8.50
2010,01,21,21,33,8.40
2010,01,21,21,34,8.40
2010,01,21,21,35,8.40
2010,01,21,21,36,8.30
2010,01,21,21,37,8.30
2010,01,21,21,38,8.30
2010,01,21,21,39,8.20
2010,01,21,21,40,8.20
2010,01,21,21,41,8.20
2010,01,21,21,42,8.20
2010,01,21,21,43,8.20
2010,01,21,21,44,8.20
2010,01,21,21,45,8.20
2010,01,21,21,46,8.20
2010,01,21,21,47,8.20
2010,01,21,21,48,8.10
2010,01,21,21,49,8.10
2010,01,21,21,50,8.10
2010,01,21,21,51,8.10
2010,01,21,21,52,8.10
2010,01,21,21,53,8.10
2010,01,21,21,54,8.20
2010,01,21,21,55,8.20
2010,01,21,21,56,8.20
2010,01,21,21,57,8.30
2010,01,21,21,58,8.30
2010,01,21,21,59,8.30
2010,01,21,22,00,8.30
2010,01,21,22,01,8.20
2010,01,21,22,02,8.20
2010,01,21,22,03,8.30
2010,01,21,22,04,8.30
2010,01,21,22,05,8.40
2010,01,21,22,06,8.40
2010,01,21,22,07,8.40
2010,01,21,22,08,8.50
2010,01,21,22,09,8.50
2010,01,21,22,10,8.50
2010,01,21,22,11,8.50
2010,01,21,22,12,8.60
2010,01,21,22,13,8.60
2010,01,21,22,14,8.60
2010,01,21,22,15,8.70
2010,01,21,22,16,8.70
2010,01,21,22,17,8.70
2010,01,21,22,18,8.70
2010,01,21,22,19,8.70
2010,01,21,22,20,8.70
2010,01,21,22,21,8.70
2010,01,21,22,22,8.70